Content
SEND FEEDBACK

Daily
Averages
Monthly
Summary
Italy

GIOIA DEL COLLE, ITALY


Home > Europe > Italy
Elevation: 1148 feet     Latitude: 40 46N     Longitude: 016 55E

WEATHER
 
SELECT A DAY
Number of Records: 153,058;   Date Range: 7/1/96 - 10/20/14
 
SHARE

PRINT THIS DATA

[ ← Previous Day ]
WEATHER ALMANAC - JANUARY 31, 2013
[ Next Day → ]
[ °C ]   °F
Weather ElementAverageHighLow
Temperature41.2 °F51.8 °F (2:55 pm)32 °F (1:55 am)
Dewpoint38.3 °F44.6 °F (9:55 am)30.2 °F (1:55 am)
Humidity89.3 %93 % (1:55 am)76 % (2:55 pm)
Barometer30.04 in30.09 in (3:55 pm)29.95 in (4:55 am)

Weather ElementAverage
Weather ElementTotal
Precipitation---
Heating Degree Days23.1 (Base 65)
Averaged from 23 records on January 31, 2013
WEATHER CONDITIONS BREAKOUT
WIND DIRECTION BREAKOUT
WEATHER BY HOUR - JANUARY 31, 2013
[ °C ]   °F
Local TimeTemperatureDewpointHumidityBarometerVisibilityWind DirectionWind SpeedGust SpeedPrecipitationEventsConditions
1:55 AM32.0 °F30.2 °F93 %30.01 inNorth
2:55 AM32.0 °F30.2 °F93 %29.98 inNorth
3:55 AM32.0 °F30.2 °F93 %29.98 inNorth
4:55 AM32.0 °F30.2 °F93 %29.95 inNorth
5:55 AM32.0 °F30.2 °F93 %29.95 inNorth
6:55 AM33.8 °F32.0 °F93 %29.95 inNorth
7:55 AM41.0 °F39.2 °F93 %30.01 inNorthPartly Cloudy
8:55 AM44.6 °F41.0 °F87 %30.01 inNorthPartly Cloudy
9:55 AM46.4 °F44.6 °F93 %30.04 inNorthMostly Cloudy
10:55 AM46.4 °F42.8 °F87 %30.06 inNorthMostly Cloudy
11:55 AM48.2 °F44.6 °F87 %30.06 inNorthMostly Cloudy
12:55 PM50.0 °F44.6 °F82 %30.06 inNorthScattered Clouds
1:55 PM50.0 °F44.6 °F82 %30.06 inNorthScattered Clouds
2:55 PM51.8 °F44.6 °F76 %30.06 inNorthScattered Clouds
3:55 PM50.0 °F44.6 °F82 %30.09 inNorthPartly Cloudy
4:55 PM48.2 °F44.6 °F87 %30.09 inNorthClear
5:55 PM44.6 °F42.8 °F93 %30.09 inNorth
6:55 PM41.0 °F39.2 °F93 %30.09 inNorth
7:55 PM39.2 °F37.4 °F93 %30.09 inNorth
8:55 PM37.4 °F35.6 °F93 %30.09 inNorth
9:55 PM37.4 °F35.6 °F93 %30.09 inNorth
10:55 PM39.2 °F35.6 °F87 %30.09 inNorth
11:55 PM39.2 °F35.6 °F87 %30.06 inNorth
Hourly data recorded from LIBV, located miles away from Gioia del Colle, Italy







STORIES FROM OUR PARTNERS